FW5380 Weather Reports


Display with metric or nautical units.
time (UTC)temp
F
wind
direction
speed
MPH
gust
MPH
rain 1hr
in
rain 24hr
in
rain mn
in
humidity
%
barometer
mb
20260902201605 61 182 5.0 12.0 0.00 0.00 0.00 69 1011.4
20260902200029 61 182 6.0 14.0 0.00 0.00 0.00 66 1011.5
20260902194530 63 193 5.0 14.0 0.00 0.00 0.00 62 1011.3
20260902193031 64 195 7.0 19.0 0.00 0.00 0.00 60 1011.1
20260902191530 65 183 6.0 18.0 0.00 0.00 0.00 59 1010.7
20260902190029 67 142 2.0 13.0 0.00 0.00 0.00 59 1010.4
20260902183032 67 71 1.0 5.0 0.00 0.00 0.00 60 1010.5
20260902181530 66 269 1.0 4.0 0.00 0.00 0.00 62 1010.8
20260902180030 65 60 1.0 5.0 0.00 0.00 0.00 64 1011.1
20260902174530 64 30 1.0 5.0 0.00 0.00 0.00 66 1011.3
20260902173103 64 28 2.0 6.0 0.00 0.00 0.00 69 1011.5
20260902171530 62 2 2.0 6.0 0.00 0.00 0.00 73 1011.7
20260902170030 61 353 2.0 6.0 0.00 0.00 0.00 77 1011.9
20260902164530 61 5 1.0 4.0 0.00 0.00 0.00 81 1012.0
20260902163029 59 15 0.0 4.0 0.00 0.00 0.00 86 1012.1
20260902161532 56 73 0.0 2.0 0.00 0.00 0.00 92 1012.4
20260902160029 55 112 0.0 3.0 0.00 0.00 0.00 93 1012.5
20260902154530 54 91 0.0 3.0 0.00 0.00 0.00 94 1012.7
20260902153029 52 6 0.0 2.0 0.00 0.00 0.00 94 1012.8
20260902151532 51 360 0.0 2.0 0.00 0.00 0.00 94 1012.9
20260902144531 48 86 0.0 3.0 0.00 0.00 0.00 94 1013.1
20260902143032 47 39 0.0 2.0 0.00 0.00 0.00 94 1013.2
20260902141531 46 143 0.0 3.0 0.00 0.00 0.00 93 1013.1
20260902140031 46 180 0.0 2.0 0.00 0.00 0.00 93 1013.1
20260902134607 46 175 0.0 3.0 0.00 0.00 0.00 93 1013.1
20260902133033 45 155 1.0 4.0 0.00 0.00 0.00 93 1013.2
20260902131609 45 172 1.0 4.0 0.00 0.00 0.00 93 1013.3
20260902130032 45 180 0.0 1.0 0.00 0.00 0.00 92 1013.4
20260902124532 45 180 0.0 0.0 0.00 0.00 0.00 92 1013.5
20260902123101 45 180 0.0 3.0 0.00 0.00 0.00 92 1013.5
20260902121532 45 180 1.0 3.0 0.00 0.00 0.00 92 1013.5
20260902120145 46 180 0.0 0.0 0.00 0.00 0.00 92 1013.5
20260902113033 46 181 1.0 3.0 0.00 0.00 0.00 91 1013.5
20260902111530 47 135 0.0 1.0 0.00 0.00 0.00 91 1013.6
20260902110031 47 161 0.0 3.0 0.00 0.00 0.00 90 1013.6
20260902103032 48 180 0.0 1.0 0.00 0.00 0.00 90 1013.4
20260902101530 49 180 1.0 3.0 0.00 0.00 0.00 90 1013.5
20260902100031 49 87 0.0 3.0 0.00 0.00 0.00 89 1013.6
20260902094530 50 45 0.0 1.0 0.00 0.00 0.00 89 1013.7
20260902093028 50 142 1.0 4.0 0.00 0.00 0.00 89 1013.7
20260902091531 50 175 2.0 4.0 0.00 0.00 0.00 89 1013.7
20260902090033 50 171 1.0 4.0 0.00 0.00 0.00 88 1013.6
20260902084606 50 185 1.0 4.0 0.00 0.00 0.00 88 1013.7
20260902083030 50 180 1.0 3.0 0.00 0.00 0.00 87 1013.7
20260902081530 50 126 0.0 3.0 0.00 0.00 0.00 86 1013.6
20260902080106 51 178 1.0 3.0 0.00 0.00 0.00 85 1013.7
20260902073105 52 182 1.0 3.0 0.00 0.00 0.00 83 1014.0
20260902071532 53 198 1.0 5.0 0.00 0.00 0.00 82 1014.0
20260902064530 55 176 1.0 3.0 0.00 0.00 0.00 80 1014.2
20260902063107 54 345 1.0 6.0 0.00 0.00 0.00 78 1013.8
20260902060104 56 42 1.0 4.0 0.00 0.00 0.00 72 1013.7
20260902054602 58 253 0.0 3.0 0.00 0.00 0.00 69 1014.1
20260902053031 59 271 0.0 1.0 0.00 0.00 0.00 67 1014.2
20260902051605 60 332 2.0 8.0 0.00 0.00 0.00 64 1013.8
20260902050029 60 329 4.0 12.0 0.00 0.00 0.00 64 1013.6
20260902043030 61 331 3.0 8.0 0.00 0.00 0.00 63 1013.4
20260902041531 61 323 5.0 10.0 0.00 0.00 0.00 61 1013.1
20260902034530 62 322 6.0 16.0 0.00 0.00 0.00 60 1012.8
20260902033031 62 329 7.0 15.0 0.00 0.00 0.00 59 1012.5
20260902031532 63 321 8.0 17.0 0.00 0.00 0.00 58 1012.2
20260902030035 63 325 7.0 16.0 0.00 0.00 0.00 57 1012.1
20260902020029 65 316 8.0 18.0 0.00 0.00 0.00 55 1011.8
20260902014532 65 321 7.0 17.0 0.00 0.00 0.00 55 1011.6
20260902013032 66 321 6.0 13.0 0.00 0.00 0.00 56 1011.6
20260902011530 66 325 6.0 16.0 0.00 0.00 0.00 56 1011.3
20260902010108 67 325 9.0 21.0 0.00 0.00 0.00 55 1010.9
20260902004605 68 329 9.0 20.0 0.00 0.00 0.00 55 1010.7
20260902003106 68 327 8.0 19.0 0.00 0.00 0.00 55 1010.8
20260902001532 69 332 9.0 18.0 0.00 0.00 0.00 55 1010.8
20260902000145 69 332 10.0 19.0 0.00 0.00 0.00 55 1010.8
20260901234531 69 326 9.0 16.0 0.00 0.00 0.00 55 1010.8
20260901233031 68 328 10.0 18.0 0.00 0.00 0.00 56 1011.0
20260901231532 68 333 9.0 16.0 0.00 0.00 0.00 55 1011.1
20260901230030 69 331 8.0 16.0 0.00 0.00 0.00 54 1011.1
20260901224532 69 330 9.0 16.0 0.00 0.00 0.00 53 1011.0
20260901223030 71 331 9.0 18.0 0.00 0.00 0.00 51 1010.9
20260901221530 72 331 11.0 20.0 0.00 0.00 0.00 51 1010.8
20260901220034 72 328 11.0 21.0 0.00 0.00 0.00 50 1010.6
20260901214532 72 329 10.0 20.0 0.00 0.00 0.00 50 1010.7
20260901213030 72 332 9.0 16.0 0.00 0.00 0.00 51 1010.8
20260901211604 72 335 8.0 17.0 0.00 0.00 0.00 50 1010.9
20260901210145 73 336 9.0 17.0 0.00 0.00 0.00 49 1011.1